Simultaneous Nadir Overpasses (SNOs) Predictions

Prediction of SNOs between LANDSAT-8 and NOAA-19 Satellite Orbit:

Table of predicted SNOs for the next 14.0 days since TLE Epoch: 8/28/2021
Index Date (LANDSAT-8) Time (LANDSAT-8) Lat,Lon (LANDSAT-8) SZA (LANDSAT-8 ) Date (NOAA-19) Time (NOAA-19) Lat,Lon (NOAA-19) SZA (NOAA-19 ) Distance(km) Time Diff (sec)
1 08/29/2021 11:51:35 -80.51,-145.52 107.21 08/29/2021 11:51:26 -80.49,-145.52 107.23 1.56 9
2 08/31/2021 17:25:19 80.52, -48.80 73.64 08/31/2021 17:24:32 80.50, -48.82 73.60 2.65 47
3 08/31/2021 18:14:47 -80.49, 118.53 106.41 08/31/2021 18:15:33 -80.49, 118.53 106.39 0.16 46
4 09/02/2021 23:48:30 80.51,-144.76 74.45 09/02/2021 23:48:38 80.49,-144.61 74.45 3.21 8
5 09/05/2021 05:22:15 -80.52, -48.04 104.69 09/05/2021 05:21:46 -80.50, -48.03 104.72 2.20 29
6 09/05/2021 06:11:42 80.49, 119.27 75.27 09/05/2021 06:12:46 80.50, 119.24 75.30 1.39 64
7 09/07/2021 10:55:59 80.53, 48.64 76.18 09/07/2021 10:54:54 80.52, 48.48 76.12 3.38 65
8 09/07/2021 11:45:27 -80.51,-143.98 103.86 09/07/2021 11:45:53 -80.50,-144.04 103.86 1.05 26
9 09/09/2021 17:19:11 80.52, -47.33 77.01 09/09/2021 17:19:01 80.51, -47.36 77.00 0.77 10



Historial Predications of SNOs between LANDSAT-8 and NOAA-19
